Find Starlink 31794

NORAD ID: 59803 Int'l Des: 2024-093 Owner: SPXS Country: US Constellation: starlink operational
LEOCIRCULAR

現在のビュー

3D地球を読み込み中...

About Starlink 31794

Starlink 31794 (NORAD 59803) is a starlink constellation satellite (v2 mini) launched May 18, 2024 by SPXS of US. It operates in LEO, CIRCULAR orbit with a mass of 730.00 kg.

次回通過

Passes for default location (London). Set your location on the main map for personalized predictions.

高度履歴

Loading altitude history...

軌道要素

1 59803U 24093X 26236.28571831 .00001062 00000-0 48115-4 0 9999
2 59803 43.0044 342.6935 0001206 273.2119 86.8595 15.27577010128397
Epoch: Aug 24, 2026 • Age: 21 hours

現在のステータス

高度 485.9 km
遠地点 / 近地点 N/A
速度 7.63 km/s
衛星直下点 38.11°N, 71.18°E
打ち上げ日 May 18, 2024
運用期間 2.2 years
タイプ internet

技術仕様

分類 Payload
質量 730.00 kg
乾燥質量 700.00 kg
総質量 730.00 kg
長さ 0.30 m
直径 4.10 m
スパン 29.00 m
形状 Box + pan
製造者 SPXS
バスタイプ Starlink V2M
フェーズステータス In Orbit
所有者/国 SPXS/US

Most Searched